| time (UTC) | temp F | wind direction | speed knots | gust knots | rain 1hr in | rain 24hr in | rain mn in | humidity % | barometer mb |
| 20260505092734 | 63 | 53 | 0.9 | 1.7 | 0.00 | 0.00 | 0.01 | 69 | 1010.1 |
| 20260505092112 | 63 | 158 | 0.9 | 0.9 | 0.00 | 0.00 | 0.01 | 69 | 1010.1 |
| 20260505091543 | 62 | 243 | 0.9 | 3.5 | 0.00 | 0.00 | 0.00 | 70 | 1010.1 |
| 20260505090932 | 62 | 106 | 0.9 | 1.7 | 0.00 | 0.00 | 0.00 | 69 | 1010.1 |
| 20260505090330 | 63 | 91 | 0.9 | 0.9 | 0.00 | 0.00 | 0.00 | 72 | 1010.1 |
| 20260505085725 | 66 | 182 | 5.2 | 7.0 | 0.00 | 0.00 | 0.00 | 63 | 1010.1 |
| 20260505085123 | 66 | 90 | 0.9 | 1.7 | 0.00 | 0.00 | 0.00 | 59 | 1009.8 |
| 20260505084548 | 66 | 339 | 3.5 | 5.2 | 0.00 | 0.00 | 0.00 | 60 | 1009.8 |
| 20260505083930 | 66 | 138 | 0.9 | 5.2 | 0.00 | 0.00 | 0.00 | 60 | 1009.8 |
| 20260505082713 | 66 | 144 | 1.7 | 1.7 | 0.00 | 0.00 | 0.00 | 61 | 1009.4 |
| 20260505081509 | 66 | 84 | 0.0 | 0.9 | 0.00 | 0.00 | 0.00 | 61 | 1009.8 |
| 20260505080952 | 66 | 216 | 2.6 | 2.6 | 0.00 | 0.00 | 0.00 | 60 | 1009.8 |
| 20260505080308 | 66 | 178 | 3.5 | 5.2 | 0.00 | 0.00 | 0.00 | 60 | 1009.4 |
| 20260505075729 | 66 | 207 | 4.3 | 7.0 | 0.00 | 0.00 | 0.00 | 59 | 1009.8 |
| 20260505075111 | 66 | 198 | 1.7 | 1.7 | 0.00 | 0.00 | 0.00 | 61 | 1009.4 |
| 20260505073939 | 66 | 123 | 3.5 | 3.5 | 0.00 | 0.00 | 0.00 | 61 | 1009.4 |
| 20260505073351 | 66 | 202 | 3.5 | 5.2 | 0.00 | 0.00 | 0.00 | 59 | 1009.4 |
| 20260505072150 | 66 | 214 | 2.6 | 3.5 | 0.00 | 0.00 | 0.00 | 60 | 1009.4 |
| 20260505070926 | 65 | 179 | 1.7 | 1.7 | 0.00 | 0.00 | 0.00 | 62 | 1009.1 |
| 20260505070310 | 65 | 234 | 3.5 | 5.2 | 0.00 | 0.00 | 0.00 | 61 | 1009.4 |
| 20260505065739 | 64 | 230 | 1.7 | 1.7 | 0.00 | 0.00 | 0.00 | 62 | 1009.4 |
| 20260505064531 | 64 | 168 | 3.5 | 5.2 | 0.00 | 0.00 | 0.00 | 63 | 1009.4 |
| 20260505063912 | 65 | 83 | 0.0 | 0.0 | 0.00 | 0.00 | 0.00 | 64 | 1009.1 |
| 20260505063352 | 65 | 162 | 3.5 | 3.5 | 0.00 | 0.00 | 0.00 | 62 | 1009.4 |
| 20260505062752 | 64 | 168 | 1.7 | 2.6 | 0.00 | 0.00 | 0.00 | 62 | 1009.4 |
| 20260505062120 | 64 | 177 | 1.7 | 3.5 | 0.00 | 0.00 | 0.00 | 63 | 1009.4 |
| 20260505060932 | 64 | 196 | 2.6 | 3.5 | 0.00 | 0.00 | 0.00 | 63 | 1009.4 |
| 20260505060347 | 64 | 135 | 0.9 | 1.7 | 0.00 | 0.00 | 0.00 | 62 | 1009.4 |
| 20260505055730 | 64 | 91 | 2.6 | 3.5 | 0.00 | 0.00 | 0.00 | 63 | 1009.8 |
| 20260505055120 | 64 | 103 | 1.7 | 1.7 | 0.00 | 0.00 | 0.00 | 64 | 1009.8 |
| 20260505054545 | 63 | 146 | 0.9 | 1.7 | 0.00 | 0.00 | 0.00 | 64 | 1009.8 |
| 20260505053930 | 64 | 238 | 1.7 | 2.6 | 0.00 | 0.00 | 0.00 | 63 | 1009.8 |
| 20260505053309 | 64 | 95 | 0.9 | 1.7 | 0.00 | 0.00 | 0.00 | 64 | 1009.8 |
| 20260505051537 | 64 | 158 | 1.7 | 2.6 | 0.00 | 0.00 | 0.00 | 63 | 1009.8 |
| 20260505050326 | 64 | 122 | 0.9 | 1.7 | 0.00 | 0.00 | 0.00 | 64 | 1009.8 |
| 20260505041526 | 63 | 107 | 0.9 | 0.9 | 0.00 | 0.00 | 0.00 | 69 | 1009.4 |
| 20260505040919 | 63 | 101 | 0.0 | 0.0 | 0.00 | 0.00 | 0.00 | 70 | 1009.4 |
| 20260505035138 | 62 | 93 | 0.0 | 0.0 | 0.00 | 0.00 | 0.00 | 74 | 1009.4 |
| 20260505034556 | 61 | 94 | 0.0 | 0.0 | 0.00 | 0.00 | 0.00 | 74 | 1009.4 |
| 20260505033913 | 61 | 91 | 0.0 | 0.0 | 0.00 | 0.00 | 0.00 | 75 | 1009.4 |
| 20260505033320 | 60 | 94 | 0.0 | 0.0 | 0.00 | 0.00 | 0.00 | 76 | 1009.4 |
| 20260505032719 | 61 | 86 | 0.0 | 0.0 | 0.00 | 0.00 | 0.00 | 77 | 1009.1 |
| 20260505032128 | 60 | 88 | 0.0 | 0.0 | 0.00 | 0.00 | 0.00 | 78 | 1009.1 |
| 20260505031514 | 60 | 88 | 0.0 | 0.0 | 0.00 | 0.00 | 0.00 | 78 | 1009.1 |
| 20260505030941 | 61 | 88 | 0.0 | 0.0 | 0.00 | 0.00 | 0.00 | 77 | 1009.4 |
| 20260505030344 | 61 | 90 | 0.0 | 0.0 | 0.00 | 0.00 | 0.00 | 77 | 1009.4 |
| 20260505025743 | 61 | 95 | 0.0 | 0.0 | 0.00 | 0.00 | 0.00 | 77 | 1009.1 |
| 20260505025129 | 61 | 89 | 0.0 | 0.0 | 0.00 | 0.00 | 0.00 | 78 | 1009.1 |
| 20260505024538 | 61 | 91 | 0.0 | 0.0 | 0.00 | 0.00 | 0.00 | 78 | 1009.1 |
| 20260505022123 | 60 | 89 | 0.0 | 0.0 | 0.00 | 0.00 | 0.00 | 79 | 1008.8 |
| 20260505021511 | 61 | 86 | 0.0 | 0.0 | 0.00 | 0.00 | 0.00 | 77 | 1008.8 |
| 20260505020926 | 61 | 92 | 0.0 | 0.0 | 0.00 | 0.00 | 0.00 | 76 | 1008.8 |
| 20260505020317 | 62 | 99 | 0.0 | 0.0 | 0.00 | 0.00 | 0.00 | 76 | 1008.8 |
| 20260505015154 | 62 | 87 | 0.0 | 0.0 | 0.00 | 0.00 | 0.00 | 74 | 1009.1 |
| 20260505014530 | 62 | 84 | 0.0 | 0.0 | 0.00 | 0.00 | 0.00 | 75 | 1009.1 |
| 20260505013918 | 63 | 96 | 0.0 | 0.9 | 0.00 | 0.00 | 0.00 | 73 | 1008.8 |
| 20260505013318 | 63 | 91 | 0.0 | 0.0 | 0.00 | 0.00 | 0.00 | 73 | 1008.8 |
| 20260505012711 | 63 | 92 | 0.0 | 0.9 | 0.00 | 0.00 | 0.00 | 73 | 1008.8 |
| 20260505012147 | 62 | 95 | 0.0 | 0.0 | 0.00 | 0.00 | 0.00 | 73 | 1008.8 |
| 20260505011536 | 62 | 91 | 0.0 | 0.0 | 0.00 | 0.00 | 0.00 | 74 | 1008.8 |
| 20260505010914 | 63 | 90 | 0.0 | 0.0 | 0.00 | 0.00 | 0.00 | 73 | 1008.8 |
| 20260505010331 | 62 | 79 | 0.0 | 0.0 | 0.00 | 0.00 | 0.00 | 74 | 1008.8 |
| 20260505005751 | 62 | 85 | 0.0 | 0.0 | 0.00 | 0.00 | 0.00 | 75 | 1008.8 |
| 20260505005121 | 62 | 103 | 0.0 | 0.0 | 0.00 | 0.00 | 0.00 | 76 | 1008.8 |
| 20260505004534 | 62 | 93 | 0.0 | 0.0 | 0.00 | 0.00 | 0.00 | 76 | 1008.4 |
| 20260505003929 | 63 | 92 | 0.0 | 0.0 | 0.00 | 0.00 | 0.00 | 74 | 1008.4 |
| 20260505003354 | 63 | 90 | 0.0 | 0.0 | 0.00 | 0.00 | 0.00 | 72 | 1008.4 |
| 20260505002111 | 64 | 90 | 0.0 | 0.0 | 0.00 | 0.00 | 0.00 | 69 | 1008.8 |
| 20260505001513 | 65 | 88 | 0.0 | 0.0 | 0.00 | 0.00 | 0.00 | 68 | 1008.4 |
| 20260505000916 | 66 | 84 | 0.0 | 0.0 | 0.00 | 0.00 | 0.00 | 66 | 1008.8 |
| 20260505000318 | 67 | 88 | 0.0 | 0.0 | 0.00 | 0.00 | 0.00 | 65 | 1008.8 |
| 20260504235715 | 68 | 85 | 0.0 | 0.0 | 0.00 | 0.00 | 0.00 | 63 | 1008.8 |
| 20260504234528 | 69 | 85 | 0.0 | 0.0 | 0.00 | 0.00 | 0.00 | 60 | 1009.1 |
| 20260504233933 | 70 | 85 | 0.0 | 0.0 | 0.00 | 0.00 | 0.00 | 59 | 1009.1 |
| 20260504233341 | 70 | 94 | 0.0 | 0.0 | 0.00 | 0.00 | 0.00 | 57 | 1009.1 |
| 20260504232715 | 70 | 111 | 0.0 | 0.0 | 0.00 | 0.00 | 0.00 | 56 | 1009.1 |
| 20260504232153 | 71 | 95 | 0.9 | 0.9 | 0.00 | 0.00 | 0.00 | 56 | 1009.1 |
| 20260504231519 | 71 | 129 | 1.7 | 1.7 | 0.00 | 0.00 | 0.00 | 55 | 1008.8 |
| 20260504230952 | 71 | 161 | 1.7 | 1.7 | 0.00 | 0.00 | 0.00 | 55 | 1009.1 |
| 20260504225714 | 71 | 103 | 0.9 | 0.9 | 0.00 | 0.00 | 0.00 | 55 | 1009.4 |
| 20260504225147 | 72 | 128 | 0.0 | 0.0 | 0.00 | 0.00 | 0.00 | 53 | 1009.4 |
| 20260504224511 | 72 | 106 | 0.0 | 0.9 | 0.00 | 0.00 | 0.00 | 52 | 1009.4 |
| 20260504223935 | 73 | 182 | 1.7 | 2.6 | 0.00 | 0.00 | 0.00 | 52 | 1009.4 |
| 20260504223316 | 72 | 240 | 2.6 | 2.6 | 0.00 | 0.00 | 0.00 | 52 | 1009.8 |
| 20260504222753 | 74 | 160 | 1.7 | 1.7 | 0.00 | 0.00 | 0.00 | 52 | 1009.8 |
| 20260504222112 | 73 | 146 | 2.6 | 2.6 | 0.00 | 0.00 | 0.00 | 52 | 1009.8 |
| 20260504221522 | 72 | 183 | 0.9 | 1.7 | 0.00 | 0.00 | 0.00 | 52 | 1009.8 |
| 20260504220927 | 72 | 299 | 1.7 | 2.6 | 0.00 | 0.00 | 0.00 | 52 | 1010.1 |
| 20260504220316 | 72 | 261 | 2.6 | 5.2 | 0.00 | 0.00 | 0.00 | 51 | 1010.1 |
| 20260504215123 | 72 | 76 | 0.0 | 0.0 | 0.00 | 0.00 | 0.00 | 55 | 1010.1 |
| 20260504214552 | 73 | 237 | 4.3 | 5.2 | 0.00 | 0.00 | 0.00 | 50 | 1010.1 |
| 20260504213951 | 72 | 164 | 1.7 | 2.6 | 0.00 | 0.00 | 0.00 | 52 | 1010.1 |
| 20260504211527 | 70 | 137 | 3.5 | 5.2 | 0.00 | 0.00 | 0.00 | 52 | 1010.4 |
| 20260504210950 | 70 | 57 | 0.0 | 0.9 | 0.00 | 0.00 | 0.00 | 52 | 1010.1 |
| 20260504210330 | 71 | 85 | 0.9 | 1.7 | 0.00 | 0.00 | 0.00 | 53 | 1010.4 |
| 20260504205734 | 73 | 196 | 1.7 | 3.5 | 0.00 | 0.00 | 0.00 | 51 | 1010.4 |
| 20260504205140 | 72 | 157 | 2.6 | 5.2 | 0.00 | 0.00 | 0.00 | 51 | 1010.1 |
| 20260504204542 | 70 | 190 | 2.6 | 2.6 | 0.00 | 0.00 | 0.00 | 52 | 1010.1 |
| 20260504203931 | 70 | 272 | 2.6 | 3.5 | 0.00 | 0.00 | 0.00 | 52 | 1010.1 |
| 20260504202734 | 70 | 56 | 1.7 | 2.6 | 0.00 | 0.00 | 0.00 | 56 | 1010.1 |
| 20260504202114 | 70 | 86 | 0.9 | 1.7 | 0.00 | 0.00 | 0.00 | 55 | 1010.1 |
| 20260504201541 | 70 | 125 | 0.9 | 1.7 | 0.00 | 0.00 | 0.00 | 55 | 1010.1 |
| 20260504200320 | 70 | 190 | 3.5 | 5.2 | 0.00 | 0.00 | 0.00 | 54 | 1010.1 |
| 20260504195752 | 70 | 258 | 3.5 | 3.5 | 0.00 | 0.00 | 0.00 | 53 | 1009.8 |
| 20260504195124 | 70 | 141 | 2.6 | 2.6 | 0.00 | 0.00 | 0.00 | 54 | 1009.8 |
| 20260504194552 | 71 | 137 | 2.6 | 5.2 | 0.00 | 0.00 | 0.00 | 52 | 1009.8 |
| 20260504193936 | 71 | 185 | 3.5 | 5.2 | 0.00 | 0.00 | 0.00 | 52 | 1009.8 |
| 20260504193337 | 72 | 149 | 4.3 | 7.0 | 0.00 | 0.00 | 0.00 | 48 | 1010.1 |
| 20260504192722 | 71 | 121 | 0.9 | 0.9 | 0.00 | 0.00 | 0.00 | 54 | 1010.1 |
| 20260504192139 | 71 | 223 | 3.5 | 6.1 | 0.00 | 0.00 | 0.00 | 52 | 1010.4 |
| 20260504191533 | 71 | 192 | 4.3 | 5.2 | 0.00 | 0.00 | 0.00 | 53 | 1010.4 |
| 20260504190949 | 70 | 146 | 4.3 | 6.1 | 0.00 | 0.00 | 0.00 | 54 | 1010.1 |
| 20260504185733 | 70 | 153 | 1.7 | 1.7 | 0.00 | 0.00 | 0.00 | 54 | 1010.4 |
| 20260504184535 | 69 | 172 | 3.5 | 3.5 | 0.00 | 0.00 | 0.00 | 55 | 1010.8 |
| 20260504183943 | 70 | 202 | 3.5 | 7.0 | 0.00 | 0.00 | 0.00 | 55 | 1010.8 |
| 20260504183329 | 68 | 125 | 2.6 | 3.5 | 0.00 | 0.00 | 0.00 | 56 | 1010.8 |
| 20260504182741 | 69 | 88 | 0.9 | 1.7 | 0.00 | 0.00 | 0.00 | 56 | 1010.8 |
| 20260504182142 | 68 | 152 | 0.9 | 1.7 | 0.00 | 0.00 | 0.00 | 57 | 1010.8 |
| 20260504181512 | 68 | 256 | 1.7 | 3.5 | 0.00 | 0.00 | 0.00 | 58 | 1011.1 |
| 20260504180923 | 69 | 233 | 4.3 | 7.8 | 0.00 | 0.00 | 0.00 | 54 | 1010.8 |
| 20260504180320 | 69 | 148 | 3.5 | 5.2 | 0.00 | 0.00 | 0.00 | 57 | 1010.8 |
| 20260504175748 | 70 | 256 | 3.5 | 3.5 | 0.00 | 0.00 | 0.00 | 54 | 1010.8 |
| 20260504174534 | 68 | 137 | 1.7 | 1.7 | 0.00 | 0.00 | 0.00 | 57 | 1011.1 |
| 20260504173931 | 68 | 202 | 3.5 | 6.1 | 0.00 | 0.00 | 0.00 | 56 | 1011.1 |
| 20260504172713 | 68 | 217 | 2.6 | 5.2 | 0.00 | 0.00 | 0.00 | 55 | 1011.1 |
| 20260504172134 | 68 | 116 | 3.5 | 5.2 | 0.00 | 0.00 | 0.00 | 56 | 1011.1 |
| 20260504171554 | 68 | 285 | 3.5 | 7.8 | 0.00 | 0.00 | 0.00 | 54 | 1011.1 |
| 20260504170919 | 68 | 62 | 0.0 | 0.9 | 0.00 | 0.00 | 0.00 | 59 | 1011.1 |
| 20260504170335 | 67 | 236 | 6.1 | 7.8 | 0.00 | 0.00 | 0.00 | 55 | 1011.5 |
| 20260504160347 | 65 | 88 | 1.7 | 2.6 | 0.00 | 0.00 | 0.00 | 59 | 1012.1 |
| 20260504141236 | 61 | 230 | 4.3 | 7.0 | 0.00 | 0.00 | 0.00 | 59 | 1013.2 |
| 20260504140653 | 60 | 240 | 4.3 | 5.2 | 0.00 | 0.00 | 0.00 | 60 | 1013.2 |
| 20260504130633 | 57 | 191 | 1.7 | 3.5 | 0.00 | 0.00 | 0.00 | 60 | 1012.8 |
| 20260504110627 | 46 | 90 | 0.0 | 0.0 | 0.00 | 0.00 | 0.00 | 77 | 1012.8 |